Year,Month,Day,Hour,Minute,Value (Times are PST for temperature in C)
2017,04,15,00,00,6.10
2017,04,15,00,01,6.10
2017,04,15,00,02,6.10
2017,04,15,00,03,6.10
2017,04,15,00,04,6.10
2017,04,15,00,05,6.10
2017,04,15,00,06,6.10
2017,04,15,00,07,6.00
2017,04,15,00,08,6.00
2017,04,15,00,09,6.00
2017,04,15,00,10,6.00
2017,04,15,00,11,6.00
2017,04,15,00,12,5.90
2017,04,15,00,13,5.90
2017,04,15,00,14,5.90
2017,04,15,00,15,5.90
2017,04,15,00,16,5.90
2017,04,15,00,17,5.80
2017,04,15,00,18,5.80
2017,04,15,00,19,5.80
2017,04,15,00,20,5.80
2017,04,15,00,21,5.80
2017,04,15,00,22,5.80
2017,04,15,00,23,5.80
2017,04,15,00,24,5.80
2017,04,15,00,25,5.80
2017,04,15,00,26,5.80
2017,04,15,00,27,5.80
2017,04,15,00,28,5.80
2017,04,15,00,29,5.80
2017,04,15,00,30,5.80
2017,04,15,00,31,5.80
2017,04,15,00,32,5.80
2017,04,15,00,33,5.80
2017,04,15,00,34,5.80
2017,04,15,00,35,5.80
2017,04,15,00,36,5.80
2017,04,15,00,37,5.70
2017,04,15,00,38,5.70
2017,04,15,00,39,5.70
2017,04,15,00,40,5.70
2017,04,15,00,41,5.70
2017,04,15,00,42,5.70
2017,04,15,00,43,5.80
2017,04,15,00,44,5.70
2017,04,15,00,45,5.70
2017,04,15,00,46,5.70
2017,04,15,00,47,5.70
2017,04,15,00,48,5.70
2017,04,15,00,49,5.70
2017,04,15,00,50,5.60
2017,04,15,00,51,5.60
2017,04,15,00,52,5.60
2017,04,15,00,53,5.60
2017,04,15,00,54,5.50
2017,04,15,00,55,5.50
2017,04,15,00,56,5.50
2017,04,15,00,57,5.50
2017,04,15,00,58,5.50
2017,04,15,00,59,5.40
2017,04,15,01,00,5.40
2017,04,15,01,01,5.40
2017,04,15,01,02,5.40
2017,04,15,01,03,5.40
2017,04,15,01,04,5.40
2017,04,15,01,05,5.40
2017,04,15,01,06,5.40
2017,04,15,01,07,5.40
2017,04,15,01,08,5.40
2017,04,15,01,09,5.40
2017,04,15,01,10,5.40
2017,04,15,01,11,5.40
2017,04,15,01,12,5.40
2017,04,15,01,13,5.40
2017,04,15,01,14,5.40
2017,04,15,01,15,5.40
2017,04,15,01,16,5.40
2017,04,15,01,17,5.40
2017,04,15,01,18,5.40
2017,04,15,01,19,5.40
2017,04,15,01,20,5.40
2017,04,15,01,21,5.40
2017,04,15,01,22,5.40
2017,04,15,01,23,5.40
2017,04,15,01,24,5.30
2017,04,15,01,25,5.30
2017,04,15,01,26,5.30
2017,04,15,01,27,5.30
2017,04,15,01,28,5.20
2017,04,15,01,29,5.20
2017,04,15,01,30,5.20
2017,04,15,01,31,5.20
2017,04,15,01,32,5.20
2017,04,15,01,33,5.20
2017,04,15,01,34,5.20
2017,04,15,01,35,5.20
2017,04,15,01,36,5.20
2017,04,15,01,37,5.10
2017,04,15,01,38,5.10
2017,04,15,01,39,5.10
2017,04,15,01,40,5.10
2017,04,15,01,41,5.10
2017,04,15,01,42,5.10
2017,04,15,01,43,5.10
2017,04,15,01,44,5.10
2017,04,15,01,45,5.10
2017,04,15,01,46,5.10
2017,04,15,01,47,5.10
2017,04,15,01,48,5.20
2017,04,15,01,49,5.20
2017,04,15,01,50,5.30
2017,04,15,01,51,5.30
2017,04,15,01,52,5.30
2017,04,15,01,53,5.40
2017,04,15,01,54,5.40
2017,04,15,01,55,5.30
2017,04,15,01,56,5.30
2017,04,15,01,57,5.30
2017,04,15,01,58,5.30
2017,04,15,01,59,5.30
2017,04,15,02,00,5.30
2017,04,15,02,01,5.30
2017,04,15,02,02,5.30
2017,04,15,02,03,5.20
2017,04,15,02,04,5.20
2017,04,15,02,05,5.20
2017,04,15,02,06,5.20
2017,04,15,02,07,5.20
2017,04,15,02,08,5.20
2017,04,15,02,09,5.20
2017,04,15,02,10,5.20
2017,04,15,02,11,5.20
2017,04,15,02,12,5.10
2017,04,15,02,13,5.10
2017,04,15,02,14,5.10
2017,04,15,02,15,5.10
2017,04,15,02,16,5.10
2017,04,15,02,17,5.10
2017,04,15,02,18,5.20
2017,04,15,02,19,5.20
2017,04,15,02,20,5.20
2017,04,15,02,21,5.20
2017,04,15,02,22,5.20
2017,04,15,02,23,5.30
2017,04,15,02,24,5.30
2017,04,15,02,25,5.30
2017,04,15,02,26,5.30
2017,04,15,02,27,5.30
2017,04,15,02,28,5.40
2017,04,15,02,29,5.40
2017,04,15,02,30,5.30
2017,04,15,02,31,5.30
2017,04,15,02,32,5.30
2017,04,15,02,33,5.20
2017,04,15,02,34,5.20
2017,04,15,02,35,5.20
2017,04,15,02,36,5.10
2017,04,15,02,37,5.10
2017,04,15,02,38,5.00
2017,04,15,02,39,5.00
2017,04,15,02,40,5.00
2017,04,15,02,41,5.10
2017,04,15,02,42,5.10
2017,04,15,02,43,5.10
2017,04,15,02,44,5.20
2017,04,15,02,45,5.20
2017,04,15,02,46,5.20
2017,04,15,02,47,5.20
2017,04,15,02,48,5.20
2017,04,15,02,49,5.20
2017,04,15,02,50,5.20
2017,04,15,02,51,5.20
2017,04,15,02,52,5.10
2017,04,15,02,53,5.10
2017,04,15,02,54,5.10
2017,04,15,02,55,5.10
2017,04,15,02,56,5.10
2017,04,15,02,57,5.10
2017,04,15,02,58,5.10
2017,04,15,02,59,5.10
2017,04,15,03,00,5.10
2017,04,15,03,01,5.10
2017,04,15,03,02,5.10
2017,04,15,03,03,5.10
2017,04,15,03,04,5.00
2017,04,15,03,05,5.00
2017,04,15,03,06,5.00
2017,04,15,03,07,4.90
2017,04,15,03,08,4.90
2017,04,15,03,09,4.90
2017,04,15,03,10,4.80
2017,04,15,03,11,4.80
2017,04,15,03,12,4.80
2017,04,15,03,13,4.80
2017,04,15,03,14,4.80
2017,04,15,03,15,4.80
2017,04,15,03,16,4.80
2017,04,15,03,17,4.80
2017,04,15,03,18,4.80
2017,04,15,03,19,4.80
2017,04,15,03,20,4.80
2017,04,15,03,21,4.80
2017,04,15,03,22,4.80
2017,04,15,03,23,4.70
2017,04,15,03,24,4.70
2017,04,15,03,25,4.70
2017,04,15,03,26,4.70
2017,04,15,03,27,4.70
2017,04,15,03,28,4.70
2017,04,15,03,29,4.60
2017,04,15,03,30,4.60
2017,04,15,03,31,4.60
2017,04,15,03,32,4.70
2017,04,15,03,33,4.70
2017,04,15,03,34,4.70
2017,04,15,03,35,4.70
2017,04,15,03,36,4.70
2017,04,15,03,37,4.70
2017,04,15,03,38,4.60
2017,04,15,03,39,4.60
2017,04,15,03,40,4.60
2017,04,15,03,41,4.60
2017,04,15,03,42,4.60
2017,04,15,03,43,4.60
2017,04,15,03,44,4.60
2017,04,15,03,45,4.60
2017,04,15,03,46,4.60
2017,04,15,03,47,4.70
2017,04,15,03,48,4.70
2017,04,15,03,49,4.70
2017,04,15,03,50,4.70
2017,04,15,03,51,4.70
2017,04,15,03,52,4.70
2017,04,15,03,53,4.70
2017,04,15,03,54,4.70
2017,04,15,03,55,4.70
2017,04,15,03,56,4.70
2017,04,15,03,57,4.70
2017,04,15,03,58,4.70
2017,04,15,03,59,4.80
2017,04,15,04,00,4.80
2017,04,15,04,01,4.80
2017,04,15,04,02,4.70
2017,04,15,04,03,4.70
2017,04,15,04,04,4.60
2017,04,15,04,05,4.60
2017,04,15,04,06,4.50
2017,04,15,04,07,4.50
2017,04,15,04,08,4.40
2017,04,15,04,09,4.40
2017,04,15,04,10,4.40
2017,04,15,04,11,4.40
2017,04,15,04,12,4.40
2017,04,15,04,13,4.30
2017,04,15,04,14,4.30
2017,04,15,04,15,4.30
2017,04,15,04,16,4.30
2017,04,15,04,17,4.30
2017,04,15,04,18,4.30
2017,04,15,04,19,4.30
2017,04,15,04,20,4.30
2017,04,15,04,21,4.30
2017,04,15,04,22,4.30
2017,04,15,04,23,4.30
2017,04,15,04,24,4.30
2017,04,15,04,25,4.30
2017,04,15,04,26,4.30
2017,04,15,04,27,4.30
2017,04,15,04,28,4.20
2017,04,15,04,29,4.20
2017,04,15,04,30,4.20
2017,04,15,04,31,4.20
2017,04,15,04,32,4.20
2017,04,15,04,33,4.20
2017,04,15,04,34,4.20
2017,04,15,04,35,4.20
2017,04,15,04,36,4.20
2017,04,15,04,37,4.20
2017,04,15,04,38,4.20
2017,04,15,04,39,4.20
2017,04,15,04,40,4.20
2017,04,15,04,41,4.20
2017,04,15,04,42,4.20
2017,04,15,04,43,4.20
2017,04,15,04,44,4.20
2017,04,15,04,45,4.10
2017,04,15,04,46,4.10
2017,04,15,04,47,4.10
2017,04,15,04,48,4.10
2017,04,15,04,49,4.10
2017,04,15,04,50,4.10
2017,04,15,04,51,4.10
2017,04,15,04,52,4.10
2017,04,15,04,53,4.10
2017,04,15,04,54,4.10
2017,04,15,04,55,4.10
2017,04,15,04,56,4.10
2017,04,15,04,57,4.10
2017,04,15,04,58,4.20
2017,04,15,04,59,4.20
2017,04,15,05,00,4.20
2017,04,15,05,01,4.20
2017,04,15,05,02,4.20
2017,04,15,05,03,4.30
2017,04,15,05,04,4.30
2017,04,15,05,05,4.30
2017,04,15,05,06,4.30
2017,04,15,05,07,4.30
2017,04,15,05,08,4.20
2017,04,15,05,09,4.20
2017,04,15,05,10,4.20
2017,04,15,05,11,4.20
2017,04,15,05,12,4.20
2017,04,15,05,13,4.20
2017,04,15,05,14,4.20
2017,04,15,05,15,4.20
2017,04,15,05,16,4.20
2017,04,15,05,17,4.20
2017,04,15,05,18,4.20
2017,04,15,05,19,4.20
2017,04,15,05,20,4.20
2017,04,15,05,21,4.20
2017,04,15,05,22,4.20
2017,04,15,05,23,4.20
2017,04,15,05,24,4.20
2017,04,15,05,25,4.20
2017,04,15,05,26,4.20
2017,04,15,05,27,4.20
2017,04,15,05,28,4.20
2017,04,15,05,29,4.20
2017,04,15,05,30,4.20
2017,04,15,05,31,4.10
2017,04,15,05,32,4.10
2017,04,15,05,33,4.10
2017,04,15,05,34,4.10
2017,04,15,05,35,4.10
2017,04,15,05,36,4.10
2017,04,15,05,37,4.10
2017,04,15,05,38,4.10
2017,04,15,05,39,4.10
2017,04,15,05,40,4.10
2017,04,15,05,41,4.10
2017,04,15,05,42,4.10
2017,04,15,05,43,4.10
2017,04,15,05,44,4.10
2017,04,15,05,45,4.10
2017,04,15,05,46,4.10
2017,04,15,05,47,4.10
2017,04,15,05,48,4.10
2017,04,15,05,49,4.10
2017,04,15,05,50,4.10
2017,04,15,05,51,4.10
2017,04,15,05,52,4.10
2017,04,15,05,53,4.10
2017,04,15,05,54,4.20
2017,04,15,05,55,4.20
2017,04,15,05,56,4.20
2017,04,15,05,57,4.20
2017,04,15,05,58,4.20
2017,04,15,05,59,4.20
2017,04,15,06,00,4.20
2017,04,15,06,01,4.20
2017,04,15,06,02,4.20
2017,04,15,06,03,4.20
2017,04,15,06,04,4.20
2017,04,15,06,05,4.20
2017,04,15,06,06,4.20
2017,04,15,06,07,4.20
2017,04,15,06,08,4.20
2017,04,15,06,09,4.20
2017,04,15,06,10,4.30
2017,04,15,06,11,4.20
2017,04,15,06,12,4.20
2017,04,15,06,13,4.20
2017,04,15,06,14,4.20
2017,04,15,06,15,4.20
2017,04,15,06,16,4.20
2017,04,15,06,17,4.20
2017,04,15,06,18,4.20
2017,04,15,06,19,4.20
2017,04,15,06,20,4.20
2017,04,15,06,21,4.20
2017,04,15,06,22,4.20
2017,04,15,06,23,4.20
2017,04,15,06,24,4.20
2017,04,15,06,25,4.20
2017,04,15,06,26,4.20
2017,04,15,06,27,4.20
2017,04,15,06,28,4.20
2017,04,15,06,29,4.10
2017,04,15,06,30,4.10
2017,04,15,06,31,4.10
2017,04,15,06,32,4.10
2017,04,15,06,33,4.10
2017,04,15,06,34,4.10
2017,04,15,06,35,4.10
2017,04,15,06,36,4.10
2017,04,15,06,37,4.10
2017,04,15,06,38,4.00
2017,04,15,06,39,4.00
2017,04,15,06,40,4.00
2017,04,15,06,41,4.00
2017,04,15,06,42,4.00
2017,04,15,06,43,4.00
2017,04,15,06,44,4.00
2017,04,15,06,45,4.00
2017,04,15,06,46,4.00
2017,04,15,06,47,4.00
2017,04,15,06,48,4.00
2017,04,15,06,49,4.10
2017,04,15,06,50,4.10
2017,04,15,06,51,4.10
2017,04,15,06,52,4.20
2017,04,15,06,53,4.20
2017,04,15,06,54,4.20
2017,04,15,06,55,4.20
2017,04,15,06,56,4.20
2017,04,15,06,57,4.30
2017,04,15,06,58,4.30
2017,04,15,06,59,4.30
2017,04,15,07,00,4.30
2017,04,15,07,01,4.40
2017,04,15,07,02,4.40
2017,04,15,07,03,4.40
2017,04,15,07,04,4.40
2017,04,15,07,05,4.40
2017,04,15,07,06,4.40
2017,04,15,07,07,4.40
2017,04,15,07,08,4.40
2017,04,15,07,09,4.40
2017,04,15,07,10,4.40
2017,04,15,07,11,4.40
2017,04,15,07,12,4.40
2017,04,15,07,13,4.40
2017,04,15,07,14,4.40
2017,04,15,07,15,4.40
2017,04,15,07,16,4.40
2017,04,15,07,17,4.40
2017,04,15,07,18,4.40
2017,04,15,07,19,4.40
2017,04,15,07,20,4.50
2017,04,15,07,21,4.40
2017,04,15,07,22,4.50
2017,04,15,07,23,4.40
2017,04,15,07,24,4.40
2017,04,15,07,25,4.40
2017,04,15,07,26,4.40
2017,04,15,07,27,4.50
2017,04,15,07,28,4.50
2017,04,15,07,29,4.50
2017,04,15,07,30,4.50
2017,04,15,07,31,4.50
2017,04,15,07,32,4.60
2017,04,15,07,33,4.60
2017,04,15,07,34,4.60
2017,04,15,07,35,4.60
2017,04,15,07,36,4.60
2017,04,15,07,37,4.60
2017,04,15,07,38,4.70
2017,04,15,07,39,4.70
2017,04,15,07,40,4.70
2017,04,15,07,41,4.70
2017,04,15,07,42,4.70
2017,04,15,07,43,4.80
2017,04,15,07,44,4.80
2017,04,15,07,45,4.80
2017,04,15,07,46,4.80
2017,04,15,07,47,4.90
2017,04,15,07,48,4.90
2017,04,15,07,49,4.90
2017,04,15,07,50,4.90
2017,04,15,07,51,4.90
2017,04,15,07,52,4.90
2017,04,15,07,53,4.90
2017,04,15,07,54,5.00
2017,04,15,07,55,5.00
2017,04,15,07,56,5.00
2017,04,15,07,57,5.00
2017,04,15,07,58,5.10
2017,04,15,07,59,5.10
2017,04,15,08,00,5.10
2017,04,15,08,01,5.10
2017,04,15,08,02,5.20
2017,04,15,08,03,5.20
2017,04,15,08,04,5.20
2017,04,15,08,05,5.20
2017,04,15,08,06,5.30
2017,04,15,08,07,5.30
2017,04,15,08,08,5.30
2017,04,15,08,09,5.30
2017,04,15,08,10,5.30
2017,04,15,08,11,5.40
2017,04,15,08,12,5.40
2017,04,15,08,13,5.40
2017,04,15,08,14,5.40
2017,04,15,08,15,5.40
2017,04,15,08,16,5.40
2017,04,15,08,17,5.40
2017,04,15,08,18,5.50
2017,04,15,08,19,5.50
2017,04,15,08,20,5.50
2017,04,15,08,21,5.50
2017,04,15,08,22,5.60
2017,04,15,08,23,5.60
2017,04,15,08,24,5.60
2017,04,15,08,25,5.60
2017,04,15,08,26,5.60
2017,04,15,08,27,5.60
2017,04,15,08,28,5.60
2017,04,15,08,29,5.60
2017,04,15,08,30,5.70
2017,04,15,08,31,5.70
2017,04,15,08,32,5.70
2017,04,15,08,33,5.70
2017,04,15,08,34,5.70
2017,04,15,08,35,5.70
2017,04,15,08,36,5.80
2017,04,15,08,37,5.80
2017,04,15,08,38,5.80
2017,04,15,08,39,5.80
2017,04,15,08,40,5.80
2017,04,15,08,41,5.80
2017,04,15,08,42,5.80
2017,04,15,08,43,5.80
2017,04,15,08,44,5.80
2017,04,15,08,45,5.80
2017,04,15,08,46,5.80
2017,04,15,08,47,5.80
2017,04,15,08,48,5.80
2017,04,15,08,49,5.80
2017,04,15,08,50,5.80
2017,04,15,08,51,5.80
2017,04,15,08,52,5.90
2017,04,15,08,53,5.90
2017,04,15,08,54,5.90
2017,04,15,08,55,5.90
2017,04,15,08,56,5.90
2017,04,15,08,57,5.90
2017,04,15,08,58,5.90
2017,04,15,08,59,5.90
2017,04,15,09,00,6.00
2017,04,15,09,01,6.00
2017,04,15,09,02,6.00
2017,04,15,09,03,6.00
2017,04,15,09,04,6.00
2017,04,15,09,05,6.00
2017,04,15,09,06,6.00
2017,04,15,09,07,6.10
2017,04,15,09,08,6.10
2017,04,15,09,09,6.10
2017,04,15,09,10,6.10
2017,04,15,09,11,6.10
2017,04,15,09,12,6.10
2017,04,15,09,13,6.10
2017,04,15,09,14,6.10
2017,04,15,09,15,6.10
2017,04,15,09,16,6.10
2017,04,15,09,17,6.10
2017,04,15,09,18,6.10
2017,04,15,09,19,6.20
2017,04,15,09,20,6.20
2017,04,15,09,21,6.20
2017,04,15,09,22,6.20
2017,04,15,09,23,6.20
2017,04,15,09,24,6.20
2017,04,15,09,25,6.20
2017,04,15,09,26,6.20
2017,04,15,09,27,6.20
2017,04,15,09,28,6.20
2017,04,15,09,29,6.20
2017,04,15,09,30,6.30
2017,04,15,09,31,6.30
2017,04,15,09,32,6.30
2017,04,15,09,33,6.40
2017,04,15,09,34,6.40
2017,04,15,09,35,6.40
2017,04,15,09,36,6.50
2017,04,15,09,37,6.50
2017,04,15,09,38,6.50
2017,04,15,09,39,6.60
2017,04,15,09,40,6.60
2017,04,15,09,41,6.60
2017,04,15,09,42,6.70
2017,04,15,09,43,6.70
2017,04,15,09,44,6.70
2017,04,15,09,45,6.70
2017,04,15,09,46,6.70
2017,04,15,09,47,6.70
2017,04,15,09,48,6.80
2017,04,15,09,49,6.80
2017,04,15,09,50,6.90
2017,04,15,09,51,6.90
2017,04,15,09,52,7.00
2017,04,15,09,53,7.00
2017,04,15,09,54,7.10
2017,04,15,09,55,7.10
2017,04,15,09,56,7.10
2017,04,15,09,57,7.10
2017,04,15,09,58,7.10
2017,04,15,09,59,7.20
2017,04,15,10,00,7.20
2017,04,15,10,01,7.20
2017,04,15,10,02,7.20
2017,04,15,10,03,7.20
2017,04,15,10,04,7.20
2017,04,15,10,05,7.30
2017,04,15,10,06,7.30
2017,04,15,10,07,7.30
2017,04,15,10,08,7.40
2017,04,15,10,09,7.50
2017,04,15,10,10,7.60
2017,04,15,10,11,7.60
2017,04,15,10,12,7.70
2017,04,15,10,13,7.80
2017,04,15,10,14,7.90
2017,04,15,10,15,8.00
2017,04,15,10,16,8.10
2017,04,15,10,17,8.20
2017,04,15,10,18,8.30
2017,04,15,10,19,8.30
2017,04,15,10,20,8.40
2017,04,15,10,21,8.50
2017,04,15,10,22,8.60
2017,04,15,10,23,8.80
2017,04,15,10,24,8.90
2017,04,15,10,25,9.00
2017,04,15,10,26,9.10
2017,04,15,10,27,9.20
2017,04,15,10,28,9.40
2017,04,15,10,29,9.40
2017,04,15,10,30,9.50
2017,04,15,10,31,9.60
2017,04,15,10,32,9.60
2017,04,15,10,33,9.60
2017,04,15,10,34,9.60
2017,04,15,10,35,9.60
2017,04,15,10,36,9.60
2017,04,15,10,37,9.70
2017,04,15,10,38,9.70
2017,04,15,10,39,9.70
2017,04,15,10,40,9.70
2017,04,15,10,41,9.70
2017,04,15,10,42,9.60
2017,04,15,10,43,9.60
2017,04,15,10,44,9.60
2017,04,15,10,45,9.70
2017,04,15,10,46,9.80
2017,04,15,10,47,9.90
2017,04,15,10,48,10.00
2017,04,15,10,49,10.10
2017,04,15,10,50,10.10
2017,04,15,10,51,10.20
2017,04,15,10,52,10.20
2017,04,15,10,53,10.10
2017,04,15,10,54,10.10
2017,04,15,10,55,10.00
2017,04,15,10,56,10.00
2017,04,15,10,57,9.90
2017,04,15,10,58,9.80
2017,04,15,10,59,9.60
2017,04,15,11,00,9.60
2017,04,15,11,01,9.50
2017,04,15,11,02,9.50
2017,04,15,11,03,9.40
2017,04,15,11,04,9.50
2017,04,15,11,05,9.50
2017,04,15,11,06,9.50
2017,04,15,11,07,9.50
2017,04,15,11,08,9.50
2017,04,15,11,09,9.60
2017,04,15,11,10,9.60
2017,04,15,11,11,9.60
2017,04,15,11,12,9.60
2017,04,15,11,13,9.60
2017,04,15,11,14,9.60
2017,04,15,11,15,9.60
2017,04,15,11,16,9.60
2017,04,15,11,17,9.60
2017,04,15,11,18,9.60
2017,04,15,11,19,9.60
2017,04,15,11,20,9.60
2017,04,15,11,21,9.70
2017,04,15,11,22,9.70
2017,04,15,11,23,9.70
2017,04,15,11,24,9.70
2017,04,15,11,25,9.70
2017,04,15,11,26,9.70
2017,04,15,11,27,9.80
2017,04,15,11,28,9.80
2017,04,15,11,29,9.70
2017,04,15,11,30,9.70
2017,04,15,11,31,9.70
2017,04,15,11,32,9.70
2017,04,15,11,33,9.70
2017,04,15,11,34,9.70
2017,04,15,11,35,9.70
2017,04,15,11,36,9.70
2017,04,15,11,37,9.80
2017,04,15,11,38,9.80
2017,04,15,11,39,9.80
2017,04,15,11,40,9.90
2017,04,15,11,41,10.00
2017,04,15,11,42,10.10
2017,04,15,11,43,10.20
2017,04,15,11,44,10.30
2017,04,15,11,45,10.40
2017,04,15,11,46,10.50
2017,04,15,11,47,10.60
2017,04,15,11,48,10.70
2017,04,15,11,49,10.70
2017,04,15,11,50,10.70
2017,04,15,11,51,10.60
2017,04,15,11,52,10.50
2017,04,15,11,53,10.40
2017,04,15,11,54,10.30
2017,04,15,11,55,10.20
2017,04,15,11,56,10.20
2017,04,15,11,57,10.20
2017,04,15,11,58,10.20
2017,04,15,11,59,10.20
2017,04,15,12,00,10.10
2017,04,15,12,01,10.10
2017,04,15,12,02,10.10
2017,04,15,12,03,10.10
2017,04,15,12,04,10.10
2017,04,15,12,05,10.20
2017,04,15,12,06,10.20
2017,04,15,12,07,10.20
2017,04,15,12,08,10.20
2017,04,15,12,09,10.10
2017,04,15,12,10,10.10
2017,04,15,12,11,10.10
2017,04,15,12,12,10.10
2017,04,15,12,13,10.10
2017,04,15,12,14,10.10
2017,04,15,12,15,10.10
2017,04,15,12,16,10.20
2017,04,15,12,17,10.20
2017,04,15,12,18,10.20
2017,04,15,12,19,10.30
2017,04,15,12,20,10.40
2017,04,15,12,21,10.60
2017,04,15,12,22,10.90
2017,04,15,12,23,11.00
2017,04,15,12,24,11.10
2017,04,15,12,25,11.00
2017,04,15,12,26,11.00
2017,04,15,12,27,11.00
2017,04,15,12,28,11.10
2017,04,15,12,29,11.10
2017,04,15,12,30,11.10
2017,04,15,12,31,11.10
2017,04,15,12,32,11.10
2017,04,15,12,33,11.10
2017,04,15,12,34,11.20
2017,04,15,12,35,11.20
2017,04,15,12,36,11.30
2017,04,15,12,37,11.30
2017,04,15,12,38,11.30
2017,04,15,12,39,11.30
2017,04,15,12,40,11.40
2017,04,15,12,41,11.50
2017,04,15,12,42,11.60
2017,04,15,12,43,11.70
2017,04,15,12,44,11.90
2017,04,15,12,45,12.00
2017,04,15,12,46,12.10
2017,04,15,12,47,12.20
2017,04,15,12,48,12.30
2017,04,15,12,49,12.40
2017,04,15,12,50,12.50
2017,04,15,12,51,12.60
2017,04,15,12,52,12.70
2017,04,15,12,53,12.60
2017,04,15,12,54,12.60
2017,04,15,12,55,12.50
2017,04,15,12,56,12.40
2017,04,15,12,57,12.30
2017,04,15,12,58,12.30
2017,04,15,12,59,12.20
2017,04,15,13,00,12.30
2017,04,15,13,01,12.30
2017,04,15,13,02,12.30
2017,04,15,13,03,12.30
2017,04,15,13,04,12.30
2017,04,15,13,05,12.20
2017,04,15,13,06,12.20
2017,04,15,13,07,12.10
2017,04,15,13,08,12.10
2017,04,15,13,09,12.10
2017,04,15,13,10,12.10
2017,04,15,13,11,12.10
2017,04,15,13,12,12.10
2017,04,15,13,13,12.10
2017,04,15,13,14,12.10
2017,04,15,13,15,12.10
2017,04,15,13,16,12.10
2017,04,15,13,17,12.10
2017,04,15,13,18,12.10
2017,04,15,13,19,12.00
2017,04,15,13,20,12.00
2017,04,15,13,21,12.00
2017,04,15,13,22,11.90
2017,04,15,13,23,11.90
2017,04,15,13,24,11.90
2017,04,15,13,25,11.90
2017,04,15,13,26,11.80
2017,04,15,13,27,11.80
2017,04,15,13,28,11.70
2017,04,15,13,29,11.50
2017,04,15,13,30,11.40
2017,04,15,13,31,11.40
2017,04,15,13,32,11.30
2017,04,15,13,33,11.30
2017,04,15,13,34,11.20
2017,04,15,13,35,11.20
2017,04,15,13,36,11.20
2017,04,15,13,37,11.30
2017,04,15,13,38,11.30
2017,04,15,13,39,11.40
2017,04,15,13,40,11.50
2017,04,15,13,41,11.50
2017,04,15,13,42,11.60
2017,04,15,13,43,11.70
2017,04,15,13,44,11.70
2017,04,15,13,45,11.70
2017,04,15,13,46,11.70
2017,04,15,13,47,11.80
2017,04,15,13,48,11.90
2017,04,15,13,49,12.10
2017,04,15,13,50,12.30
2017,04,15,13,51,12.30
2017,04,15,13,52,12.30
2017,04,15,13,53,12.40
2017,04,15,13,54,12.40
2017,04,15,13,55,12.50
2017,04,15,13,56,12.60
2017,04,15,13,57,12.70
2017,04,15,13,58,12.70
2017,04,15,13,59,12.70
2017,04,15,14,00,12.70
2017,04,15,14,01,12.70
2017,04,15,14,02,12.80
2017,04,15,14,03,12.90
2017,04,15,14,04,12.90
2017,04,15,14,05,13.00
2017,04,15,14,06,13.10
2017,04,15,14,07,13.20
2017,04,15,14,08,13.20
2017,04,15,14,09,13.20
2017,04,15,14,10,13.30
2017,04,15,14,11,13.20
2017,04,15,14,12,13.10
2017,04,15,14,13,13.00
2017,04,15,14,14,12.90
2017,04,15,14,15,12.80
2017,04,15,14,16,12.70
2017,04,15,14,17,12.50
2017,04,15,14,18,12.40
2017,04,15,14,19,12.30
2017,04,15,14,20,12.20
2017,04,15,14,21,12.10
2017,04,15,14,22,12.00
2017,04,15,14,23,11.90
2017,04,15,14,24,11.90
2017,04,15,14,25,11.80
2017,04,15,14,26,11.80
2017,04,15,14,27,11.70
2017,04,15,14,28,11.70
2017,04,15,14,29,11.70
2017,04,15,14,30,11.70
2017,04,15,14,31,11.70
2017,04,15,14,32,11.70
2017,04,15,14,33,11.70
2017,04,15,14,34,11.80
2017,04,15,14,35,11.80
2017,04,15,14,36,11.80
2017,04,15,14,37,11.70
2017,04,15,14,38,11.70
2017,04,15,14,39,11.70
2017,04,15,14,40,11.70
2017,04,15,14,41,11.60
2017,04,15,14,42,11.50
2017,04,15,14,43,11.50
2017,04,15,14,44,11.40
2017,04,15,14,45,11.40
2017,04,15,14,46,11.40
2017,04,15,14,47,11.40
2017,04,15,14,48,11.30
2017,04,15,14,49,11.30
2017,04,15,14,50,11.30
2017,04,15,14,51,11.20
2017,04,15,14,52,11.20
2017,04,15,14,53,11.20
2017,04,15,14,54,11.20
2017,04,15,14,55,11.20
2017,04,15,14,56,11.20
2017,04,15,14,57,11.20
2017,04,15,14,58,11.20
2017,04,15,14,59,11.20
2017,04,15,15,00,11.20
2017,04,15,15,01,11.20
2017,04,15,15,02,11.20
2017,04,15,15,03,11.20
2017,04,15,15,04,11.20
2017,04,15,15,05,11.20
2017,04,15,15,06,11.20
2017,04,15,15,07,11.20
2017,04,15,15,08,11.30
2017,04,15,15,09,11.30
2017,04,15,15,10,11.30
2017,04,15,15,11,11.20
2017,04,15,15,12,11.20
2017,04,15,15,13,11.30
2017,04,15,15,14,11.30
2017,04,15,15,15,11.20
2017,04,15,15,16,11.20
2017,04,15,15,17,11.20
2017,04,15,15,18,11.20
2017,04,15,15,19,11.20
2017,04,15,15,20,11.20
2017,04,15,15,21,11.20
2017,04,15,15,22,11.10
2017,04,15,15,23,11.10
2017,04,15,15,24,11.10
2017,04,15,15,25,11.10
2017,04,15,15,26,11.20
2017,04,15,15,27,11.30
2017,04,15,15,28,11.30
2017,04,15,15,29,11.40
2017,04,15,15,30,11.40
2017,04,15,15,31,11.40
2017,04,15,15,32,11.40
2017,04,15,15,33,11.30
2017,04,15,15,34,11.30
2017,04,15,15,35,11.20
2017,04,15,15,36,11.10
2017,04,15,15,37,11.10
2017,04,15,15,38,11.00
2017,04,15,15,39,11.00
2017,04,15,15,40,10.90
2017,04,15,15,41,10.90
2017,04,15,15,42,10.80
2017,04,15,15,43,10.80
2017,04,15,15,44,10.80
2017,04,15,15,45,10.80
2017,04,15,15,46,10.70
2017,04,15,15,47,10.70
2017,04,15,15,48,10.70
2017,04,15,15,49,10.70
2017,04,15,15,50,10.70
2017,04,15,15,51,10.70
2017,04,15,15,52,10.70
2017,04,15,15,53,10.70
2017,04,15,15,54,10.70
2017,04,15,15,55,10.70
2017,04,15,15,56,10.70
2017,04,15,15,57,10.70
2017,04,15,15,58,10.70
2017,04,15,15,59,10.70
2017,04,15,16,00,10.70
2017,04,15,16,01,10.80
2017,04,15,16,02,10.80
2017,04,15,16,03,10.80
2017,04,15,16,04,10.80
2017,04,15,16,05,10.70
2017,04,15,16,06,10.70
2017,04,15,16,07,10.80
2017,04,15,16,08,10.70
2017,04,15,16,09,10.70
2017,04,15,16,10,10.70
2017,04,15,16,11,10.70
2017,04,15,16,12,10.60
2017,04,15,16,13,10.60
2017,04,15,16,14,10.60
2017,04,15,16,15,10.60
2017,04,15,16,16,10.60
2017,04,15,16,17,10.50
2017,04,15,16,18,10.50
2017,04,15,16,19,10.50
2017,04,15,16,20,10.40
2017,04,15,16,21,10.40
2017,04,15,16,22,10.40
2017,04,15,16,23,10.40
2017,04,15,16,24,10.40
2017,04,15,16,25,10.40
2017,04,15,16,26,10.40
2017,04,15,16,27,10.30
2017,04,15,16,28,10.30
2017,04,15,16,29,10.30
2017,04,15,16,30,10.30
2017,04,15,16,31,10.30
2017,04,15,16,32,10.30
2017,04,15,16,33,10.30
2017,04,15,16,34,10.30
2017,04,15,16,35,10.20
2017,04,15,16,36,10.20
2017,04,15,16,37,10.20
2017,04,15,16,38,10.20
2017,04,15,16,39,10.10
2017,04,15,16,40,10.10
2017,04,15,16,41,10.10
2017,04,15,16,42,10.00
2017,04,15,16,43,10.00
2017,04,15,16,44,10.00
2017,04,15,16,45,9.90
2017,04,15,16,46,9.90
2017,04,15,16,47,9.90
2017,04,15,16,48,9.90
2017,04,15,16,49,9.90
2017,04,15,16,50,9.90
2017,04,15,16,51,9.90
2017,04,15,16,52,9.90
2017,04,15,16,53,9.90
2017,04,15,16,54,9.90
2017,04,15,16,55,9.80
2017,04,15,16,56,9.80
2017,04,15,16,57,9.80
2017,04,15,16,58,9.80
2017,04,15,16,59,9.80
2017,04,15,17,00,9.80
2017,04,15,17,01,9.80
2017,04,15,17,02,9.80
2017,04,15,17,03,9.70
2017,04,15,17,04,9.70
2017,04,15,17,05,9.70
2017,04,15,17,06,9.60
2017,04,15,17,07,9.60
2017,04,15,17,08,9.60
2017,04,15,17,09,9.60
2017,04,15,17,10,9.60
2017,04,15,17,11,9.50
2017,04,15,17,12,9.60
2017,04,15,17,13,9.50
2017,04,15,17,14,9.50
2017,04,15,17,15,9.40
2017,04,15,17,16,9.30
2017,04,15,17,17,9.30
2017,04,15,17,18,9.20
2017,04,15,17,19,9.20
2017,04,15,17,20,9.20
2017,04,15,17,21,9.10
2017,04,15,17,22,9.10
2017,04,15,17,23,9.10
2017,04,15,17,24,9.10
2017,04,15,17,25,9.10
2017,04,15,17,26,9.10
2017,04,15,17,27,9.10
2017,04,15,17,28,9.10
2017,04,15,17,29,9.10
2017,04,15,17,30,9.10
2017,04,15,17,31,9.10
2017,04,15,17,32,9.10
2017,04,15,17,33,9.10
2017,04,15,17,34,9.10
2017,04,15,17,35,9.10
2017,04,15,17,36,9.20
2017,04,15,17,37,9.20
2017,04,15,17,38,9.20
2017,04,15,17,39,9.30
2017,04,15,17,40,9.40
2017,04,15,17,41,9.40
2017,04,15,17,42,9.50
2017,04,15,17,43,9.50
2017,04,15,17,44,9.60
2017,04,15,17,45,9.60
2017,04,15,17,46,9.60
2017,04,15,17,47,9.60
2017,04,15,17,48,9.70
2017,04,15,17,49,9.60
2017,04,15,17,50,9.60
2017,04,15,17,51,9.60
2017,04,15,17,52,9.70